Time,TemperatureF,DewpointF,PressureIn,WindDirection,WindDirectionDegrees,WindSpeedMPH,WindSpeedGustMPH,Humidity,HourlyPrecipIn,Conditions,Clouds,dailyrainin,SoftwareType,DateUTC
2013-01-11 00:02:00,5.0,5.0,-100.00,West,265,21.0,30.0,100,-99.99,,,-99.99,,2013-01-11 07:02:00,
2013-01-11 00:11:00,5.0,5.0,-100.00,West,265,21.0,30.0,100,-99.99,,,-99.99,,2013-01-11 07:11:00,
2013-01-11 00:22:00,4.0,4.0,-100.00,West,266,20.0,32.0,100,-99.99,,,-99.99,,2013-01-11 07:22:00,
2013-01-11 00:32:00,4.0,4.0,-100.00,West,264,21.0,33.0,100,-99.99,,,-99.99,,2013-01-11 07:32:00,
2013-01-11 00:42:00,4.0,4.0,-100.00,West,264,21.0,33.0,100,-99.99,,,-99.99,,2013-01-11 07:42:00,
2013-01-11 00:52:00,4.0,4.0,-100.00,West,265,21.0,31.0,100,-99.99,,,-99.99,,2013-01-11 07:52:00,
2013-01-11 01:02:00,4.0,4.0,-100.00,West,264,22.0,31.0,100,-99.99,,,-99.99,,2013-01-11 08:02:00,
2013-01-11 01:12:00,4.0,4.0,-100.00,West,264,22.0,31.0,100,-99.99,,,-99.99,,2013-01-11 08:12:00,
2013-01-11 01:22:00,4.0,4.0,-100.00,West,265,20.0,33.0,100,-99.99,,,-99.99,,2013-01-11 08:22:00,
2013-01-11 01:32:00,3.0,3.0,-100.00,West,262,22.0,30.0,100,-99.99,,,-99.99,,2013-01-11 08:32:00,
2013-01-11 01:42:00,3.0,3.0,-100.00,West,262,22.0,30.0,100,-99.99,,,-99.99,,2013-01-11 08:42:00,
2013-01-11 01:52:00,3.0,3.0,-100.00,West,262,24.0,33.0,100,-99.99,,,-99.99,,2013-01-11 08:52:00,
2013-01-11 02:02:00,2.0,2.0,-100.00,West,261,26.0,34.0,100,-99.99,,,-99.99,,2013-01-11 09:02:00,
2013-01-11 02:12:00,2.0,2.0,-100.00,West,261,26.0,34.0,100,-99.99,,,-99.99,,2013-01-11 09:12:00,
2013-01-11 02:22:00,2.0,2.0,-100.00,West,262,27.0,34.0,100,-99.99,,,-99.99,,2013-01-11 09:22:00,
2013-01-11 02:32:00,1.0,1.0,-100.00,West,262,26.0,35.0,100,-99.99,,,-99.99,,2013-01-11 09:32:00,
2013-01-11 02:42:00,1.0,1.0,-100.00,West,262,26.0,35.0,100,-99.99,,,-99.99,,2013-01-11 09:42:00,
2013-01-11 02:52:00,1.0,1.0,-100.00,West,261,25.0,33.0,100,-99.99,,,-99.99,,2013-01-11 09:52:00,
2013-01-11 03:02:00,1.0,1.0,-100.00,West,262,17.0,31.0,100,-99.99,,,-99.99,,2013-01-11 10:02:00,
2013-01-11 03:12:00,1.0,1.0,-100.00,West,262,17.0,31.0,100,-99.99,,,-99.99,,2013-01-11 10:12:00,
2013-01-11 03:22:00,1.0,1.0,-100.00,West,262,11.0,26.0,100,-99.99,,,-99.99,,2013-01-11 10:22:00,
2013-01-11 03:32:00,1.0,1.0,-100.00,West,266,20.0,30.0,100,-99.99,,,-99.99,,2013-01-11 10:32:00,
2013-01-11 03:42:00,1.0,1.0,-100.00,West,266,20.0,30.0,100,-99.99,,,-99.99,,2013-01-11 10:42:00,
2013-01-11 03:52:00,0.0,0.0,-100.00,West,267,21.0,32.0,100,-99.99,,,-99.99,,2013-01-11 10:52:00,
2013-01-11 04:02:00,0.0,0.0,-100.00,West,265,22.0,33.0,100,-99.99,,,-99.99,,2013-01-11 11:02:00,
2013-01-11 04:12:00,0.0,0.0,-100.00,West,265,22.0,33.0,100,-99.99,,,-99.99,,2013-01-11 11:12:00,
2013-01-11 04:22:00,-1.0,-1.0,-100.00,West,266,20.0,32.0,100,-99.99,,,-99.99,,2013-01-11 11:22:00,
2013-01-11 04:32:00,-1.0,-1.0,-100.00,West,265,17.0,30.0,100,-99.99,,,-99.99,,2013-01-11 11:32:00,
2013-01-11 04:42:00,-1.0,-1.0,-100.00,West,265,17.0,30.0,100,-99.99,,,-99.99,,2013-01-11 11:42:00,
2013-01-11 04:53:00,-1.0,-1.0,-100.00,West,261,13.0,27.0,100,-99.99,,,-99.99,,2013-01-11 11:53:00,
2013-01-11 05:02:00,-1.0,-1.0,-100.00,West,260,14.0,26.0,100,-99.99,,,-99.99,,2013-01-11 12:02:00,
2013-01-11 05:12:00,-1.0,-1.0,-100.00,West,260,14.0,26.0,100,-99.99,,,-99.99,,2013-01-11 12:12:00,
2013-01-11 05:22:00,-1.0,-1.0,-100.00,SW,233,9.0,23.0,100,-99.99,,,-99.99,,2013-01-11 12:22:00,
2013-01-11 05:32:00,-2.0,-2.0,-100.00,West,260,12.0,26.0,100,-99.99,,,-99.99,,2013-01-11 12:32:00,
2013-01-11 05:42:00,-2.0,-2.0,-100.00,West,260,12.0,26.0,100,-99.99,,,-99.99,,2013-01-11 12:42:00,
2013-01-11 05:53:00,-2.0,-2.0,-100.00,SW,234,7.0,30.0,100,-99.99,,,-99.99,,2013-01-11 12:53:00,
2013-01-11 06:02:00,-2.0,-2.0,-100.00,SW,234,7.0,30.0,100,-99.99,,,-99.99,,2013-01-11 13:02:00,
2013-01-11 06:12:00,-2.0,-2.0,-100.00,SW,234,7.0,30.0,100,-99.99,,,-99.99,,2013-01-11 13:12:00,
2013-01-11 06:22:00,-2.0,-2.0,-100.00,East,93,8.0,16.0,100,-99.99,,,-99.99,,2013-01-11 13:22:00,
2013-01-11 06:33:00,-1.0,-1.0,-100.00,ESE,113,4.0,12.0,100,-99.99,,,-99.99,,2013-01-11 13:33:00,
2013-01-11 06:42:00,-1.0,-1.0,-100.00,ESE,113,4.0,12.0,100,-99.99,,,-99.99,,2013-01-11 13:42:00,
2013-01-11 06:53:00,-1.0,-1.0,-100.00,SW,231,7.0,21.0,100,-99.99,,,-99.99,,2013-01-11 13:53:00,
2013-01-11 07:03:00,-2.0,-2.0,-100.00,WSW,257,10.0,25.0,100,-99.99,,,-99.99,,2013-01-11 14:03:00,
2013-01-11 07:12:00,-2.0,-2.0,-100.00,WSW,257,10.0,25.0,100,-99.99,,,-99.99,,2013-01-11 14:12:00,
2013-01-11 07:22:00,-2.0,-2.0,-100.00,WSW,247,11.0,22.0,100,-99.99,,,-99.99,,2013-01-11 14:22:00,
2013-01-11 07:33:00,-2.0,-2.0,-100.00,WSW,239,9.0,24.0,100,-99.99,,,-99.99,,2013-01-11 14:33:00,
2013-01-11 07:42:00,-2.0,-2.0,-100.00,WSW,239,9.0,24.0,100,-99.99,,,-99.99,,2013-01-11 14:42:00,
2013-01-11 07:53:00,-2.0,-2.0,-100.00,WSW,253,13.0,23.0,100,-99.99,,,-99.99,,2013-01-11 14:53:00,
2013-01-11 08:03:00,-2.0,-2.0,-100.00,West,264,14.0,25.0,100,-99.99,,,-99.99,,2013-01-11 15:03:00,
2013-01-11 08:12:00,-2.0,-2.0,-100.00,West,264,14.0,25.0,100,-99.99,,,-99.99,,2013-01-11 15:12:00,
2013-01-11 08:23:00,-2.0,-2.0,-100.00,West,266,17.0,31.0,100,-99.99,,,-99.99,,2013-01-11 15:23:00,
2013-01-11 08:32:00,-2.0,-2.0,-100.00,West,267,20.0,31.0,100,-99.99,,,-99.99,,2013-01-11 15:32:00,
2013-01-11 08:42:00,-2.0,-2.0,-100.00,West,267,20.0,31.0,100,-99.99,,,-99.99,,2013-01-11 15:42:00,
2013-01-11 08:53:00,-1.0,-1.0,-100.00,West,265,15.0,29.0,100,-99.99,,,-99.99,,2013-01-11 15:53:00,
2013-01-11 09:02:00,-1.0,-1.0,-100.00,West,264,14.0,25.0,100,-99.99,,,-99.99,,2013-01-11 16:02:00,
2013-01-11 09:12:00,-1.0,-1.0,-100.00,West,264,14.0,25.0,100,-99.99,,,-99.99,,2013-01-11 16:12:00,
2013-01-11 09:22:00,-1.0,-1.0,-100.00,West,266,13.0,23.0,100,-99.99,,,-99.99,,2013-01-11 16:22:00,
2013-01-11 09:32:00,-1.0,-1.0,-100.00,West,265,15.0,26.0,100,-99.99,,,-99.99,,2013-01-11 16:32:00,
2013-01-11 09:42:00,-1.0,-1.0,-100.00,West,265,15.0,26.0,100,-99.99,,,-99.99,,2013-01-11 16:42:00,
2013-01-11 09:53:00,-1.0,-1.0,-100.00,West,265,11.0,23.0,100,-99.99,,,-99.99,,2013-01-11 16:53:00,
2013-01-11 10:03:00,-1.0,-1.0,-100.00,West,266,15.0,27.0,100,-99.99,,,-99.99,,2013-01-11 17:03:00,
2013-01-11 10:12:00,-1.0,-1.0,-100.00,West,266,15.0,27.0,100,-99.99,,,-99.99,,2013-01-11 17:12:00,
2013-01-11 10:22:00,0.0,0.0,-100.00,West,264,13.0,24.0,100,-99.99,,,-99.99,,2013-01-11 17:22:00,
2013-01-11 10:33:00,0.0,0.0,-100.00,West,262,13.0,25.0,100,-99.99,,,-99.99,,2013-01-11 17:33:00,
2013-01-11 10:43:00,0.0,0.0,-100.00,West,262,13.0,25.0,100,-99.99,,,-99.99,,2013-01-11 17:43:00,
2013-01-11 10:53:00,0.0,0.0,-100.00,West,264,12.0,24.0,100,-99.99,,,-99.99,,2013-01-11 17:53:00,
2013-01-11 11:03:00,0.0,0.0,-100.00,West,265,11.0,23.0,100,-99.99,,,-99.99,,2013-01-11 18:03:00,
2013-01-11 11:12:00,0.0,0.0,-100.00,West,265,11.0,23.0,100,-99.99,,,-99.99,,2013-01-11 18:12:00,
2013-01-11 11:23:00,0.0,0.0,-100.00,West,263,11.0,26.0,100,-99.99,,,-99.99,,2013-01-11 18:23:00,
2013-01-11 11:32:00,1.0,1.0,-100.00,West,266,11.0,23.0,100,-99.99,,,-99.99,,2013-01-11 18:32:00,
2013-01-11 11:43:00,1.0,1.0,-100.00,West,266,11.0,23.0,100,-99.99,,,-99.99,,2013-01-11 18:43:00,
2013-01-11 11:53:00,1.0,1.0,-100.00,West,268,9.0,22.0,100,-99.99,,,-99.99,,2013-01-11 18:53:00,
2013-01-11 12:02:00,1.0,1.0,-100.00,West,270,10.0,20.0,100,-99.99,,,-99.99,,2013-01-11 19:02:00,
2013-01-11 12:12:00,1.0,1.0,-100.00,West,270,10.0,20.0,100,-99.99,,,-99.99,,2013-01-11 19:12:00,
2013-01-11 12:22:00,1.0,1.0,-100.00,West,264,10.0,23.0,100,-99.99,,,-99.99,,2013-01-11 19:22:00,
2013-01-11 12:32:00,1.0,1.0,-100.00,West,265,12.0,20.0,100,-99.99,,,-99.99,,2013-01-11 19:32:00,
2013-01-11 12:42:00,1.0,1.0,-100.00,West,265,12.0,20.0,100,-99.99,,,-99.99,,2013-01-11 19:42:00,
2013-01-11 12:53:00,1.0,1.0,-100.00,West,272,11.0,24.0,100,-99.99,,,-99.99,,2013-01-11 19:53:00,
2013-01-11 13:02:00,1.0,1.0,-100.00,West,273,9.0,22.0,100,-99.99,,,-99.99,,2013-01-11 20:02:00,
2013-01-11 13:12:00,1.0,1.0,-100.00,West,273,9.0,22.0,100,-99.99,,,-99.99,,2013-01-11 20:12:00,
2013-01-11 13:22:00,2.0,2.0,-100.00,West,279,7.0,20.0,100,-99.99,,,-99.99,,2013-01-11 20:22:00,
2013-01-11 13:32:00,2.0,2.0,-100.00,West,272,8.0,20.0,100,-99.99,,,-99.99,,2013-01-11 20:32:00,
2013-01-11 13:43:00,2.0,2.0,-100.00,West,272,8.0,20.0,100,-99.99,,,-99.99,,2013-01-11 20:43:00,
2013-01-11 13:53:00,1.0,1.0,-100.00,West,267,9.0,18.0,100,-99.99,,,-99.99,,2013-01-11 20:53:00,
2013-01-11 14:03:00,1.0,1.0,-100.00,West,260,11.0,30.0,100,-99.99,,,-99.99,,2013-01-11 21:03:00,
2013-01-11 14:12:00,1.0,1.0,-100.00,West,260,11.0,30.0,100,-99.99,,,-99.99,,2013-01-11 21:12:00,
2013-01-11 14:23:00,0.0,0.0,-100.00,WSW,258,12.0,23.0,100,-99.99,,,-99.99,,2013-01-11 21:23:00,
2013-01-11 14:32:00,0.0,0.0,-100.00,West,268,14.0,26.0,100,-99.99,,,-99.99,,2013-01-11 21:32:00,
2013-01-11 14:42:00,0.0,0.0,-100.00,West,268,14.0,26.0,100,-99.99,,,-99.99,,2013-01-11 21:42:00,
2013-01-11 14:53:00,0.0,0.0,-100.00,West,266,16.0,32.0,100,-99.99,,,-99.99,,2013-01-11 21:53:00,
2013-01-11 15:02:00,0.0,0.0,-100.00,West,265,13.0,28.0,100,-99.99,,,-99.99,,2013-01-11 22:02:00,
2013-01-11 15:12:00,0.0,0.0,-100.00,West,265,13.0,28.0,100,-99.99,,,-99.99,,2013-01-11 22:12:00,
2013-01-11 15:22:00,0.0,0.0,-100.00,West,269,12.0,26.0,100,-99.99,,,-99.99,,2013-01-11 22:22:00,
2013-01-11 15:33:00,0.0,0.0,-100.00,West,269,12.0,26.0,100,-99.99,,,-99.99,,2013-01-11 22:33:00,
2013-01-11 15:42:00,0.0,0.0,-100.00,West,269,12.0,26.0,100,-99.99,,,-99.99,,2013-01-11 22:42:00,
2013-01-11 15:53:00,0.0,0.0,-100.00,WSW,253,11.0,19.0,100,-99.99,,,-99.99,,2013-01-11 22:53:00,
2013-01-11 16:02:00,0.0,0.0,-100.00,WSW,245,9.0,18.0,100,-99.99,,,-99.99,,2013-01-11 23:02:00,
2013-01-11 16:12:00,0.0,0.0,-100.00,WSW,245,9.0,18.0,100,-99.99,,,-99.99,,2013-01-11 23:12:00,
2013-01-11 16:22:00,0.0,0.0,-100.00,WSW,250,8.0,17.0,100,-99.99,,,-99.99,,2013-01-11 23:22:00,
2013-01-11 16:32:00,0.0,0.0,-100.00,WSW,251,10.0,22.0,100,-99.99,,,-99.99,,2013-01-11 23:32:00,
2013-01-11 16:42:00,0.0,0.0,-100.00,WSW,251,10.0,22.0,100,-99.99,,,-99.99,,2013-01-11 23:42:00,
2013-01-11 16:53:00,0.0,0.0,-100.00,WSW,255,9.0,17.0,100,-99.99,,,-99.99,,2013-01-11 23:53:00,
2013-01-11 17:02:00,0.0,0.0,-100.00,West,261,7.0,16.0,100,-99.99,,,-99.99,,2013-01-12 00:02:00,
2013-01-11 17:12:00,0.0,0.0,-100.00,West,261,7.0,16.0,100,-99.99,,,-99.99,,2013-01-12 00:12:00,
2013-01-11 17:22:00,0.0,0.0,-100.00,West,270,5.0,18.0,100,-99.99,,,-99.99,,2013-01-12 00:22:00,
2013-01-11 17:32:00,0.0,0.0,-100.00,West,265,5.0,15.0,100,-99.99,,,-99.99,,2013-01-12 00:32:00,
2013-01-11 17:42:00,0.0,0.0,-100.00,West,265,5.0,15.0,100,-99.99,,,-99.99,,2013-01-12 00:42:00,
2013-01-11 17:53:00,0.0,0.0,-100.00,West,269,4.0,9.0,100,-99.99,,,-99.99,,2013-01-12 00:53:00,
2013-01-11 18:02:00,-1.0,-1.0,-100.00,WSW,249,8.0,18.0,100,-99.99,,,-99.99,,2013-01-12 01:02:00,
2013-01-11 18:12:00,-1.0,-1.0,-100.00,WSW,249,8.0,18.0,100,-99.99,,,-99.99,,2013-01-12 01:12:00,
2013-01-11 18:22:00,-1.0,-1.0,-100.00,WSW,256,9.0,19.0,100,-99.99,,,-99.99,,2013-01-12 01:22:00,
2013-01-11 18:32:00,-1.0,-1.0,-100.00,SW,236,5.0,13.0,100,-99.99,,,-99.99,,2013-01-12 01:32:00,
2013-01-11 18:42:00,-1.0,-1.0,-100.00,SW,236,5.0,13.0,100,-99.99,,,-99.99,,2013-01-12 01:42:00,
2013-01-11 18:52:00,-1.0,-1.0,-100.00,SSW,211,3.0,9.0,100,-99.99,,,-99.99,,2013-01-12 01:52:00,
2013-01-11 19:02:00,-1.0,-1.0,-100.00,WSW,249,5.0,15.0,100,-99.99,,,-99.99,,2013-01-12 02:02:00,
2013-01-11 19:12:00,-1.0,-1.0,-100.00,WSW,249,5.0,15.0,100,-99.99,,,-99.99,,2013-01-12 02:12:00,
2013-01-11 19:22:00,-1.0,-1.0,-100.00,WSW,253,7.0,15.0,100,-99.99,,,-99.99,,2013-01-12 02:22:00,
2013-01-11 19:32:00,-1.0,-1.0,-100.00,West,265,10.0,21.0,100,-99.99,,,-99.99,,2013-01-12 02:32:00,
2013-01-11 19:42:00,-1.0,-1.0,-100.00,West,265,10.0,21.0,100,-99.99,,,-99.99,,2013-01-12 02:42:00,
2013-01-11 19:53:00,-1.0,-1.0,-100.00,West,270,11.0,22.0,100,-99.99,,,-99.99,,2013-01-12 02:53:00,
2013-01-11 20:02:00,-2.0,-2.0,-100.00,West,268,8.0,20.0,100,-99.99,,,-99.99,,2013-01-12 03:02:00,
2013-01-11 20:12:00,-2.0,-2.0,-100.00,West,268,8.0,20.0,100,-99.99,,,-99.99,,2013-01-12 03:12:00,
2013-01-11 20:22:00,-2.0,-2.0,-100.00,West,265,8.0,18.0,100,-99.99,,,-99.99,,2013-01-12 03:22:00,
2013-01-11 20:32:00,-2.0,-2.0,-100.00,WSW,246,8.0,20.0,100,-99.99,,,-99.99,,2013-01-12 03:32:00,
2013-01-11 20:42:00,-2.0,-2.0,-100.00,WSW,246,8.0,20.0,100,-99.99,,,-99.99,,2013-01-12 03:42:00,
2013-01-11 20:53:00,-2.0,-2.0,-100.00,SSW,200,4.0,11.0,100,-99.99,,,-99.99,,2013-01-12 03:53:00,
2013-01-11 21:02:00,-2.0,-2.0,-100.00,SW,224,7.0,18.0,100,-99.99,,,-99.99,,2013-01-12 04:02:00,
2013-01-11 21:12:00,-2.0,-2.0,-100.00,SW,224,7.0,18.0,100,-99.99,,,-99.99,,2013-01-12 04:12:00,
2013-01-11 21:22:00,-2.0,-2.0,-100.00,WSW,254,3.0,9.0,100,-99.99,,,-99.99,,2013-01-12 04:22:00,
2013-01-11 21:32:00,-2.0,-2.0,-100.00,SSW,205,5.0,14.0,100,-99.99,,,-99.99,,2013-01-12 04:32:00,
2013-01-11 21:42:00,-2.0,-2.0,-100.00,SSW,205,5.0,14.0,100,-99.99,,,-99.99,,2013-01-12 04:42:00,
2013-01-11 21:52:00,-2.0,-2.0,-100.00,SW,216,6.0,18.0,100,-99.99,,,-99.99,,2013-01-12 04:52:00,
2013-01-11 22:03:00,-2.0,-2.0,-100.00,WSW,241,8.0,17.0,100,-99.99,,,-99.99,,2013-01-12 05:03:00,
2013-01-11 22:12:00,-2.0,-2.0,-100.00,WSW,241,8.0,17.0,100,-99.99,,,-99.99,,2013-01-12 05:12:00,
2013-01-11 22:22:00,-2.0,-2.0,-100.00,West,263,6.0,14.0,100,-99.99,,,-99.99,,2013-01-12 05:22:00,
2013-01-11 22:32:00,-3.0,-3.0,-100.00,West,273,4.0,12.0,100,-99.99,,,-99.99,,2013-01-12 05:32:00,
2013-01-11 22:42:00,-3.0,-3.0,-100.00,West,273,4.0,12.0,100,-99.99,,,-99.99,,2013-01-12 05:42:00,
2013-01-11 22:52:00,-3.0,-3.0,-100.00,WSW,257,5.0,12.0,100,-99.99,,,-99.99,,2013-01-12 05:52:00,
2013-01-11 23:02:00,-3.0,-3.0,-100.00,WSW,247,4.0,10.0,100,-99.99,,,-99.99,,2013-01-12 06:02:00,
2013-01-11 23:12:00,-3.0,-3.0,-100.00,WSW,247,4.0,10.0,100,-99.99,,,-99.99,,2013-01-12 06:12:00,
2013-01-11 23:22:00,-3.0,-3.0,-100.00,South,175,2.0,6.0,100,-99.99,,,-99.99,,2013-01-12 06:22:00,
2013-01-11 23:32:00,-2.0,-2.0,-100.00,NW,310,3.0,10.0,100,-99.99,,,-99.99,,2013-01-12 06:32:00,
2013-01-11 23:42:00,-2.0,-2.0,-100.00,NW,310,3.0,10.0,100,-99.99,,,-99.99,,2013-01-12 06:42:00,
2013-01-11 23:52:00,-3.0,-3.0,-100.00,WSW,248,4.0,10.0,100,-99.99,,,-99.99,,2013-01-12 06:52:00,